This demonstration page uses our WeatherBlox Daily Observations layout. Learn more.

Left ArrowRight Arrow

39.01783, -85.05884

Hourly Observations for July 31, 2021

Temp ( °F °C ) Dew Point ( °F °C ) Humidity (%) Winds ( mph kmh ) Pressure ( in mb ) Visibility ( mi km ) Precip ( " mm )
12:52 am 00:52 Partly Cloudy 71 21.7 60 15.6 68 68 N 6 9 30.04 1017 10 16 N/A
1:52 am 01:52 Partly Cloudy 70 21.1 59 15 68 68 N 6 9 30.02 1017 10 16 N/A
2:52 am 02:52 Mostly Cloudy 68 20 60 15.6 76 76 N 7 11 30.01 1016 10 16 N/A
3:52 am 03:52 Partly Cloudy 69 20.6 59 15 70 70 N 7 11 30.02 1017 10 16 N/A
4:52 am 04:52 Partly Cloudy 68 20 60 15.6 76 76 N 3 6 30.01 1016 10 16 N/A
5:52 am 05:52 Mostly Cloudy 70 21.1 58 14.4 66 66 ENE 6 9 30.00 1016 10 16 N/A
6:52 am 06:52 Cloudy 69 20.6 59 15 70 70 E 3 6 30.00 1016 9 14 N/A
7:52 am 07:52 Cloudy 70 21.1 58 14.4 66 66 E 3 6 30.02 1017 8 13 N/A
8:52 am 08:52 Cloudy 70 21.1 59 15 68 68 ESE 6 9 30.01 1016 8 13 N/A
9:52 am 09:52 Cloudy 72 22.2 60 15.6 66 66 ESE 5 7 30.01 1016 8 13 N/A
10:52 am 10:52 Cloudy 73 22.8 60 15.6 64 64 SE 5 7 30.01 1016 8 13 N/A
11:52 am 11:52 Cloudy 77 25 62 16.7 60 60 N N/A 30.01 1016 8 13 N/A
12:52 pm 12:52 Cloudy 76 24.4 60 15.6 58 58 W 12 19 30.03 1017 9 14 N/A
1:52 pm 13:52 Cloudy 75 23.9 63 17.2 66 66 W 10 17 30.04 1017 9 14 N/A
2:52 pm 14:52 Cloudy with Light Rain 73 22.8 61 16.1 66 66 W 12 19 30.01 1016 9 14 0.00 0.00
3:52 pm 15:52 Cloudy with Drizzle 69 20.6 57 13.9 66 66 SW 7 11 30.00 1016 10 16 0.00 0.00
4:52 pm 16:52 Cloudy 72 22.2 55 12.8 55 55 N N/A 29.95 1014 10 16 0.00 0.00
5:52 pm 17:52 Cloudy with Haze 71 21.7 57 13.9 61 61 W 7 11 29.96 1015 6 10 N/A
6:52 pm 18:52 Cloudy 70 21.1 57 13.9 64 64 W 7 11 29.95 1014 7 11 N/A
7:52 pm 19:52 Cloudy with Haze 70 21.1 57 13.9 64 64 NW 7 11 29.95 1014 6 10 N/A
8:52 pm 20:52 Cloudy with Haze 69 20.6 58 14.4 68 68 WNW 7 11 29.96 1015 6 10 N/A
9:52 pm 21:52 Cloudy with Haze 67 19.4 59 15 76 76 N N/A 29.96 1014 6 10 N/A
10:52 pm 22:52 Mostly Cloudy with Haze 65 18.3 58 14.4 78 78 WSW 5 7 29.95 1014 6 10 N/A
11:52 pm 23:52 Hazy 65 18.3 58 14.4 78 78 NNW 5 7 29.93 1014 6 10 N/A

Powered by AerisWeather